Regional Weather Roundup
Issued by NWS

Home | Current Version | Previous Version | Graphics & Text | Print | Product List | Glossary On
Versions: 1 2 3 4 5 6 7 8 9 10 11 12 13 14 15 16 17 18 19 20 21 22 23 24 25 26 27 28 29 30 31 32 33 34 35 36 37 38 39 40 41 42 43 44 45 46 47 48 49 50
000
ASUS44 KMEG 061610
RWRTN
TENNESSEE HOURLY STATE WEATHER ROUNDUP
NATIONAL WEATHER SERVICE MEMPHIS TN
1000 AM CST FRI MAR 06 2015

TNZ002-004-019-021-049-052-054-088>092-061700-
WEST TENNESSEE

CITY           SKY/WX    TMP DP  RH WIND       PRES   REMARKS
MEMPHIS INTL   SUNNY     27  11  51 CALM      30.63S
NWS MEMPHIS      N/A     25 N/A N/A MISG        N/A
JACKSON        SUNNY     22   8  55 N5        30.62F WCI  16
DYERSBURG      SUNNY     21   0  39 CALM      30.65S
UNION CITY     SUNNY     18   9  68 CALM      30.62F
PARIS          SUNNY     21   7  53 CALM      30.60S
LEXINGTON      SUNNY     25  10  54 SW3       30.59F
SAVANNAH       SUNNY     27  12  54 N6        30.60S WCI  20
$$

TNZ008-025-027-028-033-062-065-066-061700-
NORTH MIDDLE TENNESSEE

CITY           SKY/WX    TMP DP  RH WIND       PRES   REMARKS
NASHVILLE      SUNNY     25  15  66 CALM      30.59S
CLARKSVILLE    SUNNY     18   8  65 CALM      30.60F
SMYRNA         SUNNY     25  14  62 CALM      30.59F
COOKEVILLE     SUNNY     25  18  74 E5        30.50F WCI  19
CROSSVILLE     SUNNY     24  16  71 CALM      30.46R
$$

TNZ061-075-076-078-094-096-097-061700-
SOUTH MIDDLE TENNESSEE

CITY           SKY/WX    TMP DP  RH WIND       PRES   REMARKS
FAYETTEVILLE   SUNNY     21  14  73 NE8         N/A  WCI  12
TULLAHOMA      SUNNY     23  12  63 NE3         N/A
WINCHESTER     SUNNY     23  16  74 CALM      30.53S
MCMINNVILLE    SUNNY     25  16  68 VRB5      30.51F WCI  19
COLUMBIA         N/A     23  19  86 NE5       30.55F WCI  17
SHELBYVILLE    SUNNY     25  16  68 NE5       30.56S WCI  19
$$

TNZ017-018-042-046-047-061700-
NORTHEAST TENNESSEE

CITY           SKY/WX    TMP DP  RH WIND       PRES   REMARKS
TRI CITIES     SUNNY     24  15  68 CALM      30.45F
ELIZABETHTON   SUNNY     27  18  69 W8        30.43S WCI  18
$$

TNZ012-013-036-069-073-074-061700-
CENTRAL EAST TENNESSEE

CITY           SKY/WX    TMP DP  RH WIND       PRES   REMARKS
KNOXVILLE      MOSUNNY   28  18  66 VRB3      30.50S
OAK RIDGE      SUNNY     29  19  66 MISG      30.52
GATLINBURG     CLOUDY    23  18  80 CALM      30.49S
MORRISTOWN     SUNNY     25  16  68 NE5       30.47F WCI  19
$$

TNZ083-085-099-061700-
SOUTHEAST TENNESSEE

CITY           SKY/WX    TMP DP  RH WIND       PRES   REMARKS
CHATTANOOGA    MOSUNNY   30  17  58 NE12      30.52F WCI  20
$$

SKY/WX REPORTED AS FAIR MEANS FEW OR NO CLOUDS BELOW
12 THOUSAND FEET.



USA.gov is the U.S. government's official web portal to all federal, state and local government web resources and services.